[[{"header":{"parameterUnit":"m.s-1","parameterCategory":1,"la1":30.2991,"la2":30.254,"lo1":-89.0895,"lo2":-89.0444,"dy":0.0017,"dx":0.0017,"nx":28,"ny":28,"refTime":"2023-09-21T09:00:00:Z","depth":0,"parameterNumber":2,"parameterNumberName":"U-component_of_WINDS"},"data":[0,0,0,0,0,0,0,0,0,0,0,0,0,0,0,0,0,0,0,0,0,0,0,0,0,0,0,0,0,0,0,0,0,0,0,0,0,0,0,0,0,0,0,0,0,0,0,0,0,0,0,0,0,0,0,0,0,0,-5.1044,-5.1045,0,-5.112,-5.1121,-5.1121,-5.098,-5.0975,-5.097,-5.0966,-5.1047,-5.1053,-5.106,0,0,0,0,0,0,0,0,0,0,0,0,0,-5.0779,-5.0784,-5.1044,-5.1045,-5.1046,-5.112,-5.1121,-5.1122,-5.0981,-5.0975,-5.0969,-5.0964,-5.1045,-5.1052,-5.106,0,0,0,0,0,0,0,0,0,0,0,0,0,-5.0878,-5.0786,-5.1044,-5.0984,-5.098,-5.1119,-5.1121,-5.1122,-5.0982,-5.0975,-5.0968,-5.0961,-5.1042,-5.1052,-5.1061,-5.1263,0,0,-5.1091,-5.1095,0,0,0,0,0,0,0,0,-5.0873,-5.0888,-5.0992,-5.0989,-5.0984,-5.1033,-5.1056,-5.1169,-5.0984,-5.0981,-5.0966,-5.0958,-5.1048,-5.1057,-5.1087,-5.1267,-5.127,-5.1092,-5.1098,-5.1102,-5.1105,0,0,0,0,0,0,0,-5.0866,-5.0884,-5.1074,-5.0994,-5.0989,-5.0954,-5.0961,-5.1077,-5.1054,-5.0981,-5.0971,-5.0981,-5.1044,-5.1078,-5.1088,-5.1272,-5.1092,-5.11,-5.1107,-5.111,-5.1619,-5.1626,0,0,0,0,0,0,-5.0866,-5.0879,-5.1072,-5.1076,-5.091,-5.0965,-5.0972,-5.1025,-5.1052,-5.1049,-5.0987,-5.0975,-5.1064,-5.1076,-5.109,-5.1326,-5.1102,-5.1111,-5.1117,-5.1611,-5.162,-5.1629,0,0,0,0,0,0,-5.0861,-5.0885,-5.1069,-5.0975,-5.0996,-5.0977,-5.1037,-5.103,-5.1063,-5.1057,-5.1052,-5.1026,-5.1059,-5.1076,-5.122,-5.1327,-5.1116,-5.1125,-5.1602,-5.1614,-5.1625,-5.1803,0,0,0,0,0,0,-5.0854,-5.0884,-5.0961,-5.0978,-5.1001,-5.1198,-5.1044,-5.1036,-5.108,-5.1063,-5.1091,-5.1089,-5.1055,-5.1206,-5.123,-5.1337,-5.1132,-5.1593,-5.1608,-5.1621,-5.1787,-5.1819,-5.1846,0,0,0,0,0,-5.0845,-5.1009,-5.0965,-5.0989,-5.1097,-5.1205,-5.1218,-5.1174,-5.1089,-5.1165,-5.1161,-5.1088,-5.1312,-5.1222,-5.1248,-5.1359,-5.1586,-5.1603,-5.162,-5.1774,-5.1812,-5.1845,0,0,0,0,0,0,-5.1006,-5.101,-5.0962,-5.1136,-5.1171,-5.118,-5.1276,-5.1217,-5.1278,-5.1261,-5.1205,-5.1212,-5.1368,-5.1378,-5.1278,-5.1555,-5.1434,-5.1457,-5.1543,-5.1579,-5.1608,-5.1602,-5.114,0,0,0,0,0,-5.1062,-5.1149,-5.1147,-5.1301,-5.1321,-5.1296,-5.1341,-5.1304,-5.1339,-5.1353,-5.1359,-5.1397,-5.1474,-5.1527,-5.1599,-5.1788,-5.1791,-5.1877,-5.1906,-5.193,-5.1951,-5.2049,-5.2087,-5.1685,-5.1685,-5.1685,0,0,-5.1178,-5.1191,-5.1249,-5.1334,-5.1356,-5.1447,-5.1309,-5.1412,-5.1479,-5.1369,-5.1505,-5.1511,-5.1548,-5.1715,-5.1789,-5.1728,-5.2062,-5.1952,-5.1971,-5.1979,-5.2071,-5.2109,-5.2143,-5.1697,-5.1695,-5.1693,0,0,-5.1435,-5.1454,-5.1583,-5.1608,-5.1643,-5.1625,-5.1657,-5.1675,-5.1674,-5.1809,-5.1728,-5.1807,-5.1944,-5.1973,-5.2006,-5.2272,-5.2207,-5.2297,-5.245,-5.2547,-5.2579,-5.2606,-5.27,-5.2735,-5.2318,-5.2318,-5.2318,0,-5.1575,-5.1709,-5.1657,-5.1765,-5.1804,-5.1707,-5.1836,-5.1864,-5.1922,-5.1951,-5.1882,-5.2049,-5.2068,-5.2239,-5.2304,-5.2334,-5.2367,-5.2294,-5.2578,-5.2605,-5.2631,-5.2719,-5.2755,-5.2329,-5.2328,-5.2326,-5.2325,0,-5.1878,-5.1972,-5.2072,-5.2128,-5.2178,-5.2297,-5.2263,-5.232,-5.2279,-5.2268,-5.2406,-5.2424,-5.2497,-5.2535,-5.2497,-5.2701,-5.2662,-5.2587,-5.2464,-5.268,-5.2763,-5.2797,-5.2344,-5.234,-5.2337,-5.2334,0,0,-5.2241,-5.2265,-5.2302,-5.2325,-5.2357,-5.2428,-5.2542,-5.2611,-5.2661,-5.2704,-5.2797,-5.2914,-5.2843,-5.2881,-5.2844,-5.293,-5.3137,-5.2843,-5.2843,-5.2896,-5.3362,-5.3418,-5.3458,-5.3094,-5.3101,-5.3106,-5.3358,0,-5.2495,-5.2689,-5.2645,-5.2837,-5.2921,-5.2829,-5.2928,-5.2958,-5.2951,-5.3022,-5.3014,-5.3097,-5.2998,-5.302,-5.31,-5.3095,-5.323,-5.3077,-5.3181,-5.3185,-5.3173,-5.3501,-5.3561,-5.3799,-5.339,-5.3396,-5.34,0,-5.2818,-5.287,-5.307,-5.3085,-5.3119,-5.3209,-5.3268,-5.3337,-5.3369,-5.3357,-5.3398,-5.3345,-5.3457,-5.3333,-5.3487,-5.3383,-5.3423,-5.3427,-5.3435,-5.3443,-5.3305,-5.3517,-5.3873,-5.3909,-5.345,-5.3446,-5.3443,0,-5.306,-5.3181,-5.3316,-5.3339,-5.336,-5.3425,-5.3437,-5.3461,-5.3505,-5.3557,-5.3585,-5.3651,-5.3686,-5.3738,-5.3703,-5.3617,-5.3863,-5.3736,-5.3856,-5.3857,-5.3911,-5.3908,-5.4279,-5.3939,-5.3939,-5.3938,-5.3937,0,-5.3348,-5.3474,-5.3424,-5.3507,-5.3645,-5.3593,-5.373,-5.3732,-5.3754,-5.3835,-5.3761,-5.3839,-5.3788,-5.3863,-5.3837,-5.3967,-5.3984,-5.3978,-5.3969,-5.3984,-5.3985,-5.4009,-5.3991,-5.3948,-5.3945,-5.3944,-5.3942,0,-5.3642,-5.3614,-5.3754,-5.3762,-5.3767,-5.3868,-5.3875,-5.3951,-5.3937,-5.4041,-5.4063,-5.4042,-5.4125,-5.4095,-5.4185,-5.4167,-5.4333,-5.4303,-5.4322,-5.4314,-5.4434,-5.4423,-5.4832,-5.4883,-5.4512,-5.4516,-5.4519,0,-5.3827,-5.3921,-5.3938,-5.3986,-5.4003,-5.4083,-5.4126,-5.4079,-5.4127,-5.4169,-5.4241,-5.4317,-5.4375,-5.4512,-5.4506,-5.4573,-5.4544,-5.4683,-5.4554,-5.4565,-5.4544,-5.4539,-5.4547,-5.4709,-5.4713,-5.4716,-5.4719,0,-5.4158,-5.4139,-5.4204,-5.4265,-5.4319,-5.4365,-5.4404,-5.4448,-5.4402,-5.4461,-5.4544,-5.4589,-5.4679,-5.4755,-5.4815,-5.4828,-5.4767,-5.476,-5.4791,-5.4806,-5.4812,-5.4809,-5.4391,-5.4751,-5.4748,-5.4745,-5.4744,-5.4742,-5.4402,-5.4481,-5.4504,-5.4579,-5.4603,-5.4641,-5.4712,-5.4707,-5.4775,-5.4843,-5.4811,-5.4907,-5.4934,-5.5009,-5.503,-5.5104,-5.505,-5.5096,-5.5107,-5.5119,-5.5133,-5.4801,-5.5115,-5.5114,-5.5113,-5.5113,-5.5112,0,-5.4728,-5.4738,-5.4807,-5.4863,-5.4922,-5.4857,-5.4897,-5.495,-5.5035,-5.5065,-5.5123,-5.5218,-5.5291,-5.529,-5.5357,-5.5417,-5.539,-5.5436,-5.5431,-5.5435,-5.5178,-5.5144,-5.5457,-5.5457,-5.5457,-5.5456,-5.5456,-5.5456,-5.4904,-5.5032,-5.5016,-5.5155,-5.5164,-5.5256,-5.5284,-5.5319,-5.5342,-5.5451,-5.551,-5.5508,-5.5525,-5.5593,-5.5657,-5.5655,-5.5683,-5.5739,-5.5727,-5.5487,-5.5453,-5.542,-5.5388,-5.5746,-5.5747,-5.5976,-5.5978,-5.598]},{"header":{"parameterUnit":"m.s-1","parameterCategory":1,"la1":30.2991,"la2":30.254,"lo1":-89.0895,"lo2":-89.0444,"dy":0.0017,"dx":0.0017,"nx":28,"ny":28,"refTime":"2023-09-21T09:00:00:Z","depth":0,"parameterNumber":3,"parameterNumberName":"V-component_of_WINDS"},"data":[0,0,0,0,0,0,0,0,0,0,0,0,0,0,0,0,0,0,0,0,0,0,0,0,0,0,0,0,0,0,0,0,0,0,0,0,0,0,0,0,0,0,0,0,0,0,0,0,0,0,0,0,0,0,0,0,0,0,-1.831,-1.8311,0,-1.8403,-1.8404,-1.8405,-1.8437,-1.8436,-1.8436,-1.8436,-1.8531,-1.8534,-1.8537,0,0,0,0,0,0,0,0,0,0,0,0,0,-1.8161,-1.8163,-1.831,-1.8311,-1.8312,-1.8403,-1.8404,-1.8405,-1.8437,-1.8436,-1.8436,-1.8436,-1.853,-1.8533,-1.8537,0,0,0,0,0,0,0,0,0,0,0,0,0,-1.8236,-1.8164,-1.831,-1.8339,-1.8343,-1.8402,-1.8404,-1.8405,-1.8437,-1.8436,-1.8436,-1.8435,-1.8529,-1.8533,-1.8537,-1.8575,0,0,-1.855,-1.8552,0,0,0,0,0,0,0,0,-1.8232,-1.8242,-1.8334,-1.8337,-1.8341,-1.8408,-1.8386,-1.8462,-1.8437,-1.8401,-1.8436,-1.8435,-1.849,-1.8498,-1.8516,-1.8579,-1.8583,-1.8551,-1.8553,-1.8555,-1.8557,0,0,0,0,0,0,0,-1.8227,-1.8238,-1.8347,-1.8335,-1.834,-1.8348,-1.8358,-1.8401,-1.8448,-1.8404,-1.8407,-1.8417,-1.8492,-1.8512,-1.8519,-1.8585,-1.8551,-1.8555,-1.8557,-1.8559,-1.8683,-1.8683,0,0,0,0,0,0,-1.8217,-1.8234,-1.8344,-1.835,-1.8284,-1.8351,-1.8362,-1.8387,-1.8447,-1.8456,-1.8418,-1.8418,-1.8505,-1.8514,-1.8522,-1.857,-1.8555,-1.8559,-1.8562,-1.8682,-1.8683,-1.8684,0,0,0,0,0,0,-1.8213,-1.8226,-1.834,-1.8292,-1.8307,-1.8354,-1.8381,-1.8389,-1.8409,-1.8457,-1.8466,-1.8429,-1.8505,-1.8516,-1.8561,-1.8574,-1.8561,-1.8565,-1.8681,-1.8682,-1.8683,-1.8666,0,0,0,0,0,0,-1.8209,-1.8225,-1.824,-1.8292,-1.831,-1.8378,-1.8382,-1.8391,-1.8416,-1.8418,-1.8471,-1.8479,-1.8505,-1.8555,-1.8566,-1.858,-1.8569,-1.868,-1.8682,-1.8683,-1.8666,-1.8666,-1.8667,0,0,0,0,0,-1.8203,-1.8231,-1.824,-1.8253,-1.8329,-1.8378,-1.8388,-1.8418,-1.8417,-1.8432,-1.8463,-1.8477,-1.8571,-1.8559,-1.8572,-1.8587,-1.868,-1.8681,-1.8683,-1.8665,-1.8666,-1.8667,0,0,0,0,0,0,-1.8179,-1.8239,-1.8249,-1.8295,-1.8331,-1.8384,-1.8404,-1.8418,-1.8456,-1.8456,-1.8492,-1.8503,-1.8545,-1.8571,-1.8557,-1.8626,-1.8626,-1.863,-1.8608,-1.861,-1.861,-1.8603,-1.8572,0,0,0,0,0,-1.8179,-1.8214,-1.8264,-1.83,-1.8317,-1.8357,-1.838,-1.8399,-1.8439,-1.8454,-1.8489,-1.8526,-1.8564,-1.8588,-1.8625,-1.8669,-1.8681,-1.8686,-1.8686,-1.8687,-1.869,-1.8715,-1.8718,-1.8689,-1.8689,-1.8689,0,0,-1.818,-1.8216,-1.8236,-1.8296,-1.8326,-1.8361,-1.837,-1.8407,-1.8433,-1.846,-1.8505,-1.8531,-1.8575,-1.8619,-1.8641,-1.8642,-1.8701,-1.8689,-1.8689,-1.8692,-1.8717,-1.8719,-1.8722,-1.869,-1.869,-1.8689,0,0,-1.8198,-1.823,-1.8262,-1.8292,-1.8338,-1.8365,-1.8372,-1.8422,-1.8441,-1.8486,-1.8506,-1.8538,-1.8603,-1.8633,-1.8657,-1.8686,-1.87,-1.8697,-1.8701,-1.8724,-1.8727,-1.8729,-1.8739,-1.8743,-1.87,-1.87,-1.87,0,-1.8193,-1.8247,-1.8278,-1.8313,-1.8339,-1.8364,-1.8397,-1.8425,-1.848,-1.8497,-1.8498,-1.8579,-1.861,-1.8662,-1.8669,-1.8687,-1.8697,-1.8692,-1.8724,-1.8726,-1.8729,-1.8739,-1.8743,-1.87,-1.87,-1.87,-1.87,0,-1.8238,-1.8275,-1.8296,-1.8349,-1.8376,-1.8411,-1.8446,-1.8471,-1.8488,-1.8514,-1.8559,-1.8598,-1.8643,-1.8657,-1.8674,-1.8711,-1.8711,-1.8717,-1.8717,-1.873,-1.8741,-1.8745,-1.8699,-1.8699,-1.8699,-1.8699,0,0,-1.8245,-1.8314,-1.8321,-1.8345,-1.8397,-1.8426,-1.8461,-1.8505,-1.8525,-1.8562,-1.8593,-1.8646,-1.8652,-1.8679,-1.87,-1.8721,-1.8741,-1.8725,-1.8726,-1.8727,-1.8785,-1.878,-1.8784,-1.8751,-1.8752,-1.8752,-1.8781,0,-1.8271,-1.8335,-1.8363,-1.8414,-1.8448,-1.8472,-1.8503,-1.8538,-1.8563,-1.8596,-1.8623,-1.8661,-1.8666,-1.8682,-1.8704,-1.8734,-1.8753,-1.8733,-1.878,-1.8781,-1.8768,-1.8789,-1.8785,-1.881,-1.8785,-1.8786,-1.8786,0,-1.831,-1.8346,-1.8401,-1.8448,-1.8463,-1.849,-1.8533,-1.8564,-1.8604,-1.862,-1.865,-1.867,-1.8708,-1.8705,-1.8757,-1.8742,-1.8763,-1.8781,-1.8783,-1.8789,-1.8785,-1.8796,-1.8819,-1.8822,-1.8793,-1.8792,-1.8792,0,-1.831,-1.8373,-1.8413,-1.8433,-1.8489,-1.8507,-1.8531,-1.8571,-1.8595,-1.8632,-1.8649,-1.869,-1.8712,-1.8743,-1.8774,-1.8769,-1.8823,-1.8823,-1.8839,-1.8838,-1.885,-1.8849,-1.8876,-1.8862,-1.8862,-1.8862,-1.8862,0,-1.8336,-1.8368,-1.8414,-1.8439,-1.8476,-1.8507,-1.8543,-1.8569,-1.8604,-1.8634,-1.8657,-1.8685,-1.8723,-1.8756,-1.878,-1.882,-1.883,-1.8844,-1.8851,-1.8843,-1.8841,-1.8857,-1.8857,-1.8863,-1.8863,-1.8863,-1.8862,0,-1.8342,-1.8374,-1.842,-1.8469,-1.8481,-1.8506,-1.8548,-1.8573,-1.8599,-1.8637,-1.8648,-1.8689,-1.8729,-1.8762,-1.8814,-1.883,-1.8872,-1.8879,-1.8858,-1.8862,-1.8875,-1.8874,-1.8915,-1.8922,-1.8902,-1.8903,-1.8903,0,-1.8357,-1.8382,-1.8433,-1.8455,-1.8479,-1.8514,-1.8538,-1.857,-1.8595,-1.8642,-1.8662,-1.8703,-1.8738,-1.8801,-1.8835,-1.8875,-1.8884,-1.8895,-1.889,-1.8881,-1.8884,-1.8882,-1.8885,-1.8896,-1.8896,-1.8896,-1.8896,0,-1.838,-1.8394,-1.8429,-1.8469,-1.8498,-1.8531,-1.8565,-1.8582,-1.862,-1.8647,-1.8688,-1.8715,-1.8768,-1.8809,-1.8852,-1.8877,-1.8893,-1.8897,-1.8903,-1.8895,-1.8883,-1.889,-1.886,-1.8896,-1.8896,-1.8896,-1.8896,-1.8896,-1.8391,-1.8415,-1.8454,-1.8492,-1.852,-1.8551,-1.8577,-1.8606,-1.864,-1.8686,-1.8702,-1.8744,-1.8783,-1.8843,-1.8868,-1.8902,-1.8904,-1.8912,-1.8914,-1.8916,-1.8915,-1.8877,-1.891,-1.891,-1.891,-1.891,-1.891,0,-1.8415,-1.8441,-1.8476,-1.8522,-1.8552,-1.8563,-1.8601,-1.8625,-1.8662,-1.8696,-1.873,-1.8777,-1.8816,-1.8853,-1.8895,-1.8914,-1.8922,-1.8924,-1.8923,-1.8929,-1.8911,-1.8902,-1.8917,-1.8917,-1.8917,-1.8917,-1.8917,-1.8917,-1.8432,-1.8472,-1.849,-1.8545,-1.8571,-1.8612,-1.8632,-1.8661,-1.8689,-1.874,-1.8772,-1.8796,-1.8832,-1.8876,-1.8913,-1.8922,-1.8937,-1.8937,-1.8948,-1.8931,-1.893,-1.8929,-1.8921,-1.8939,-1.8939,-1.8964,-1.8964,-1.8964]}]]